Regional Weather Roundup
Issued by NWS

Home | Current Version | Previous Version | Graphics & Text | Print | Product List | Glossary On
Versions: 1 2 3 4 5 6 7 8 9 10 11 12 13 14 15 16 17 18 19 20 21 22 23 24 25 26 27 28 29 30 31 32 33 34 35 36 37 38 39 40 41 42 43 44 45 46 47 48 49 50
000
ASUS43 KFSD 241810
RWRSD

WEATHER ROUNDUP FOR SOUTH DAKOTA
NATIONAL WEATHER SERVICE SIOUX FALLS SD
1200 PM CST FRI NOV 24 2017

NOTE: "FAIR" INDICATES FEW OR NO CLOUDS BELOW 12,000 FEET WITH NO
SIGNIFICANT WEATHER AND/OR OBSTRUCTIONS TO VISIBILITY.


SDZ001>005-009-010-012>017-241900-
NORTHWEST AND NORTH CENTRAL SOUTH DAKOTA

CITY           SKY/WX    TMP DP  RH WIND       PRES   REMARKS
FAITH            N/A     51  37  58 NW29      29.74R
MOBRIDGE       SUNNY     54  37  52 NW20G31   29.62R
$$

SDZ012>016-024>037-041>051-057-063-072>074-241900-
SOUTHWEST AND SOUTH CENTRAL SOUTH DAKOTA

CITY           SKY/WX    TMP DP  RH WIND       PRES   REMARKS
RAPID CTY ARPT SUNNY     53  27  36 NW39G48   29.80R
PIERRE         CLOUDY    56  40  55 NW26G36   29.67R
CUSTER         SUNNY     45  25  45 NW15G25   29.82R
ELLSWORTH AFB  SUNNY     52  28  39 NW32G44   29.78S
PHILIP         MOSUNNY   58  35  42 NW26G39   29.75R
PINE RIDGE     CLOUDY    53  42  66 NW10      29.84R
SPEARFISH      FAIR      46  30  53 NW22G33   29.85S
WINNER         FAIR      61  39  44 NW26G36   29.67F
$$

SDZ004>011-016>023-039-040-241900-
NORTHEAST SOUTH DAKOTA

CITY           SKY/WX    TMP DP  RH WIND       PRES   REMARKS
ABERDEEN       CLOUDY    50  41  71 N22G31    29.56R
WATERTOWN      CLOUDY    52  42  69 W16G30    29.48S
BROOKINGS      LGT RAIN  58  38  47 NW23G39   29.51F
SISSETON         N/A     49  44  83 NW24G32   29.47R
$$

SDZ017-020-022-023-036>040-048>070-241900-
SOUTHEAST SOUTH DAKOTA

CITY           SKY/WX    TMP DP  RH WIND       PRES   REMARKS
SIOUX FALLS    CLOUDY    64  42  44 NW28G38   29.53R
HURON          CLOUDY    57  41  55 NW28G33   29.56R
CHAMBERLAIN    CLOUDY    58  42  54 NW22G28   29.65S
MITCHELL       CLOUDY    62  37  39 NW29G45   29.58R
YANKTON        SUNNY     63  40  42 NW32G41   29.56R
$$

ABBREVIATIONS USED IN REMARKS
   TC - TEMPERATURE IN CELSIUS
  WCI - WIND CHILL INDEX
   HX - HEAT INDEX
  VSB - VISIBILITY




USA.gov is the U.S. government's official web portal to all federal, state and local government web resources and services.